Flag Weather past 2 weeks in Bayreuth, Bavaria, Germany

Now
47 °F

Fog.


Feels Like: 47 °F
Forecast: 42 / 59 °F
Wind: No wind

Location: Grafenwoehr

Current Time: Oct 31, 2014 at 6:43:48 AM

Latest Report: Oct 31, 2014 at 5:58 AM


Visibility: 6 mi

Pressure: 30.34 "Hg

Humidity: 96%

Dew point: 46 °F

Location of BayreuthLocation

Historic Weather in Bayreuth — Graph

°F

Bayreuth temperature yesterday

Maximum temperature yesterday: 51 °F (at 3:58 PM)
Minimum temperature yesterday: 40 °F (at 7:58 AM)
Average temperature yesterday: 47 °F

Past Weeks' High & Low Weather Summary

 TemperatureHumidityPressure
High64 °F (Oct 16, 2:58 PM)100% (Oct 16, 11:58 AM)30.43 "Hg (Oct 16, 11:58 AM)
Low30 °F (Oct 28, 10:02 PM)66% (Oct 28, 2:58 PM)29.55 "Hg (Oct 21, 9:01 PM)
Average47 °F92%30.12 "Hg
* Reported Oct 16 5:58 AM — Oct 31 4:58 AM, Bayreuth, Weather by CustomWeather, © 2014

Note: Actual official high and low records may vary slightly from our data, if they occured in-between our weather recording intervals... More about our weather records

Advertising

Bayreuth weather history for previous 24 hours

 ConditionsComfort  
Time TempWeatherWind HumidityBarometerVisibility
4:58 AM
Oct 31
46 °FFog.No wind93%30.34 "Hg6 mi
3:58 AM46 °FMostly cloudy.No wind93%30.34 "HgN/A
2:58 AM45 °FOvercast.No wind97%30.34 "HgN/A
1:58 AM46 °FOvercast.No wind95%30.34 "HgN/A
12:58 AM47 °FMostly cloudy.No wind93%30.34 "HgN/A
12:04 AM48 °FMostly cloudy.No wind87%30.32 "HgN/A
11:58 PM
Oct 30
48 °FMostly cloudy.2 mph94%30.34 "HgN/A
11:47 PM48 °FMostly cloudy.2 mph94%30.32 "HgN/A
10:58 PM48 °FOvercast.No wind87%30.35 "HgN/A
9:58 PM48 °FOvercast.No wind94%30.34 "HgN/A
8:58 PM48 °FOvercast.No wind90%30.35 "HgN/A
7:58 PM48 °FMostly cloudy.1 mph87%30.34 "HgN/A
7:48 PM48 °FOvercast.No wind87%30.31 "HgN/A
6:58 PM48 °FOvercast.No wind87%30.34 "HgN/A
5:58 PM50 °FOvercast.No wind82%30.33 "Hg6 mi
4:58 PM50 °FOvercast.2 mph82%30.32 "Hg6 mi
4:45 PM50 °FOvercast.No wind76%30.28 "Hg6 mi
3:58 PM51 °FOvercast.2 mph78%30.31 "HgN/A
3:02 PM50 °FOvercast.1 mph76%30.27 "Hg3 mi
2:57 PM50 °FOvercast.2 mph76%30.29 "HgN/A
2:01 PM50 °FOvercast.5 mph71%30.27 "HgN/A
1:58 PM50 °FOvercast.2 mph72%30.29 "Hg6 mi
12:58 PM48 °FMostly cloudy.2 mph74%30.30 "HgN/A
11:58 AM47 °FOvercast.2 mph76%30.30 "HgN/A
11:03 AM46 °FMostly cloudy.2 mph76%30.27 "HgN/A
10:58 AM46 °FMore clouds than sun.2 mph76%30.30 "HgN/A
9:58 AM46 °FOvercast.3 mph76%30.29 "HgN/A
9:01 AM45 °FMostly cloudy.1 mph81%30.25 "HgN/A
7:58 AM40 °FPassing clouds.No wind90%30.27 "HgN/A
6:58 AM41 °FOvercast.No wind87%30.24 "HgN/A
Weather by CustomWeather, © 2014

See weather overviewHow to use our weather pages